When you browse on this site, cookies collect data to enhance your experience and personalize the content and advertising you see.
Visit our Privacy Policy to learn more. By continuing to use the site, you agree to this use of cookies and data.
  • In Belgien
  • Länderverzeichnis
  • Für 7 Tage
  • Wassertemperatur
  • Wetterkarte
  • Widgets
  • user-avatar
    Anmelden

    Stündliche Wetter Szeged

    Heute, 7 April, Dienstag

    Zeit Temperatur Niederschläge Wind Luftdruck Luftfeuchtigkeit
    00:00 +7°C° 0 mm 2 m/S 767 mmHg 47%
    01:00 +7°C° 0 mm 2 m/S 767 mmHg 45%
    02:00 +6°C° 0 mm 2 m/S 767 mmHg 46%
    03:00 +6°C° 0 mm 2 m/S 767 mmHg 46%
    04:00 +5°C° 0 mm 2 m/S 767 mmHg 46%
    05:00 +6°C° 0 mm 2 m/S 768 mmHg 46%
    06:00 +7°C° 0 mm 2 m/S 768 mmHg 47%
    07:00 +7°C° 0 mm 2 m/S 768 mmHg 47%
    08:00 +9°C° 0 mm 2 m/S 768 mmHg 45%
    09:00 +12°C° 0 mm 2 m/S 769 mmHg 42%
    10:00 +14°C° 0 mm 2 m/S 769 mmHg 39%
    11:00 +15°C° 0 mm 2 m/S 769 mmHg 38%
    12:00 +16°C° 0 mm 3 m/S 768 mmHg 36%
    13:00 +17°C° 0 mm 3 m/S 768 mmHg 35%
    14:00 +18°C° 0 mm 2 m/S 768 mmHg 35%
    15:00 +18°C° 0 mm 2 m/S 767 mmHg 36%
    16:00 +18°C° 0 mm 2 m/S 767 mmHg 36%
    17:00 +16°C° 0 mm 2 m/S 767 mmHg 41%
    18:00 +14°C° 0 mm 1 m/S 767 mmHg 47%
    19:00 +13°C° 0 mm 1 m/S 767 mmHg 52%
    20:00 +12°C° 0 mm 1 m/S 767 mmHg 53%
    21:00 +11°C° 0 mm 1 m/S 767 mmHg 55%
    22:00 +10°C° 0 mm 1 m/S 767 mmHg 57%
    23:00 +10°C° 0 mm 1 m/S 767 mmHg 57%

    Morgen, 8 April, Mittwoch

    Zeit Temperatur Niederschläge Wind Luftdruck Luftfeuchtigkeit
    00:00 +9°C° 0 mm 1 m/S 767 mmHg 58%
    01:00 +9°C° 0 mm 1 m/S 767 mmHg 58%
    02:00 +8°C° 0 mm 1 m/S 767 mmHg 58%
    03:00 +8°C° 0 mm 1 m/S 767 mmHg 58%
    04:00 +8°C° 0 mm 1 m/S 767 mmHg 59%
    05:00 +8°C° 0 mm 0 m/S 767 mmHg 57%
    06:00 +9°C° 0 mm 0 m/S 767 mmHg 56%
    07:00 +10°C° 0 mm 0 m/S 767 mmHg 55%
    08:00 +13°C° 0 mm 1 m/S 767 mmHg 49%
    09:00 +15°C° 0 mm 1 m/S 766 mmHg 43%
    10:00 +18°C° 0 mm 1 m/S 766 mmHg 37%
    11:00 +18°C° 0 mm 1 m/S 766 mmHg 35%
    12:00 +19°C° 0 mm 1 m/S 765 mmHg 34%
    13:00 +20°C° 0 mm 1 m/S 765 mmHg 32%
    14:00 +19°C° 0 mm 2 m/S 764 mmHg 33%
    15:00 +19°C° 0 mm 2 m/S 763 mmHg 34%
    16:00 +19°C° 0 mm 2 m/S 763 mmHg 35%
    17:00 +17°C° 0 mm 2 m/S 763 mmHg 41%
    18:00 +15°C° 0 mm 2 m/S 762 mmHg 46%
    19:00 +14°C° 0 mm 1 m/S 762 mmHg 51%
    20:00 +13°C° 0 mm 1 m/S 762 mmHg 53%
    21:00 +12°C° 0 mm 1 m/S 762 mmHg 55%
    22:00 +11°C° 0 mm 0 m/S 762 mmHg 57%
    23:00 +10°C° 0 mm 0 m/S 762 mmHg 59%

    übermorgen, 9 April, Donnerstag

    Zeit Temperatur Niederschläge Wind Luftdruck Luftfeuchtigkeit
    00:00 +10°C° 0 mm 0 m/S 762 mmHg 60%
    01:00 +9°C° 0 mm 0 m/S 761 mmHg 62%
    02:00 +9°C° 0 mm 0 m/S 761 mmHg 63%
    03:00 +9°C° 0 mm 0 m/S 761 mmHg 65%
    04:00 +8°C° 0 mm 0 m/S 761 mmHg 66%
    05:00 +9°C° 0 mm 0 m/S 761 mmHg 64%
    06:00 +10°C° 0 mm 0 m/S 761 mmHg 62%
    07:00 +11°C° 0 mm 0 m/S 761 mmHg 60%
    08:00 +13°C° 0 mm 0 m/S 761 mmHg 55%
    09:00 +15°C° 0 mm 0 m/S 761 mmHg 49%
    10:00 +17°C° 0 mm 0 m/S 761 mmHg 44%
    11:00 +18°C° 0 mm 0 m/S 761 mmHg 41%
    12:00 +21°C° 0 mm 1 m/S 760 mmHg 38%
    13:00 +22°C° 0 mm 1 m/S 760 mmHg 35%
    14:00 +22°C° 0 mm 1 m/S 759 mmHg 34%
    15:00 +22°C° 0 mm 1 m/S 759 mmHg 34%
    16:00 +21°C° 0 mm 2 m/S 758 mmHg 33%
    17:00 +19°C° 0 mm 2 m/S 758 mmHg 38%
    18:00 +17°C° 0 mm 2 m/S 758 mmHg 42%
    19:00 +15°C° 0 mm 2 m/S 758 mmHg 47%
    20:00 +14°C° 0 mm 2 m/S 758 mmHg 48%
    21:00 +14°C° 0 mm 2 m/S 758 mmHg 49%
    22:00 +13°C° 0 mm 2 m/S 759 mmHg 50%
    23:00 +13°C° 0 mm 2 m/S 758 mmHg 51%

    10 April, Freitag

    Zeit Temperatur Niederschläge Wind Luftdruck Luftfeuchtigkeit
    00:00 +12°C° 0 mm 2 m/S 758 mmHg 53%
    01:00 +11°C° 0 mm 3 m/S 758 mmHg 54%
    02:00 +10°C° 0 mm 3 m/S 758 mmHg 56%
    03:00 +10°C° 0 mm 3 m/S 758 mmHg 58%
    04:00 +10°C° 0 mm 3 m/S 758 mmHg 60%
    05:00 +10°C° 0 mm 3 m/S 758 mmHg 61%
    06:00 +11°C° 0 mm 4 m/S 758 mmHg 63%
    07:00 +12°C° 0 mm 4 m/S 759 mmHg 65%
    08:00 +14°C° 0 mm 4 m/S 759 mmHg 61%
    09:00 +17°C° 0 mm 4 m/S 759 mmHg 57%
    10:00 +18°C° 0 mm 4 m/S 759 mmHg 53%
    11:00 +19°C° 0 mm 4 m/S 759 mmHg 51%
    12:00 +20°C° 0 mm 4 m/S 759 mmHg 49%
    13:00 +21°C° 0 mm 4 m/S 758 mmHg 47%
    14:00 +20°C° 0 mm 4 m/S 758 mmHg 48%
    15:00 +20°C° 0 mm 4 m/S 758 mmHg 50%
    16:00 +19°C° 0 mm 3 m/S 758 mmHg 51%
    17:00 +18°C° 0 mm 3 m/S 758 mmHg 59%
    18:00 +16°C° 0 mm 3 m/S 758 mmHg 66%
    19:00 +13°C° 0 mm 3 m/S 758 mmHg 73%
    20:00 +13°C° 0 mm 2 m/S 759 mmHg 70%
    21:00 +12°C° 0 mm 2 m/S 759 mmHg 68%
    22:00 +10°C° 0 mm 2 m/S 759 mmHg 65%
    23:00 +10°C° 0 mm 2 m/S 760 mmHg 64%

    11 April, Samstag

    Zeit Temperatur Niederschläge Wind Luftdruck Luftfeuchtigkeit
    00:00 +9°C° 0 mm 2 m/S 760 mmHg 63%
    01:00 +8°C° 0 mm 2 m/S 760 mmHg 62%
    02:00 +8°C° 0 mm 2 m/S 760 mmHg 63%
    03:00 +8°C° 0 mm 1 m/S 760 mmHg 65%
    04:00 +8°C° 0 mm 1 m/S 760 mmHg 66%
    05:00 +9°C° 0 mm 1 m/S 760 mmHg 63%
    06:00 +10°C° 0 mm 1 m/S 760 mmHg 61%
    07:00 +11°C° 0 mm 1 m/S 761 mmHg 58%
    08:00 +13°C° 0 mm 1 m/S 761 mmHg 53%
    09:00 +14°C° 0 mm 1 m/S 761 mmHg 48%
    10:00 +16°C° 0 mm 1 m/S 761 mmHg 44%
    11:00 +19°C° 0 mm 1 m/S 760 mmHg 42%
    12:00 +18°C° 0 mm 0 m/S 760 mmHg 41%
    13:00 +19°C° 0 mm 0 m/S 760 mmHg 40%
    14:00 +19°C° 0 mm 0 m/S 759 mmHg 40%
    15:00 +19°C° 0 mm 0 m/S 759 mmHg 39%
    16:00 +21°C° 0 mm 1 m/S 759 mmHg 39%
    17:00 +19°C° 0 mm 1 m/S 759 mmHg 43%
    18:00 +18°C° 0 mm 1 m/S 758 mmHg 48%
    19:00 +16°C° 0 mm 1 m/S 758 mmHg 52%
    20:00 +15°C° 0 mm 1 m/S 758 mmHg 55%
    21:00 +14°C° 0 mm 1 m/S 759 mmHg 58%
    22:00 +13°C° 0 mm 1 m/S 759 mmHg 61%
    23:00 +12°C° 0 mm 1 m/S 759 mmHg 63%

    12 April, Sonntag

    Zeit Temperatur Niederschläge Wind Luftdruck Luftfeuchtigkeit
    00:00 +12°C° 0 mm 1 m/S 758 mmHg 64%
    01:00 +12°C° 0 mm 1 m/S 758 mmHg 66%
    02:00 +12°C° 0 mm 1 m/S 758 mmHg 68%
    03:00 +10°C° 0 mm 2 m/S 758 mmHg 69%
    04:00 +10°C° 0 mm 2 m/S 758 mmHg 71%
    05:00 +12°C° 0 mm 2 m/S 758 mmHg 70%
    06:00 +13°C° 0 mm 2 m/S 758 mmHg 68%
    07:00 +14°C° 0 mm 2 m/S 758 mmHg 67%
    08:00 +16°C° 0 mm 2 m/S 758 mmHg 61%
    09:00 +18°C° 0 mm 2 m/S 758 mmHg 54%
    10:00 +20°C° 0 mm 3 m/S 757 mmHg 48%
    11:00 +21°C° 0 mm 3 m/S 757 mmHg 46%
    12:00 +22°C° 0 mm 3 m/S 757 mmHg 43%
    13:00 +24°C° 0 mm 3 m/S 756 mmHg 41%
    14:00 +24°C° 0 mm 3 m/S 756 mmHg 42%
    15:00 +24°C° 0 mm 3 m/S 755 mmHg 42%
    16:00 +24°C° 0 mm 3 m/S 755 mmHg 43%
    17:00 +21°C° 0 mm 3 m/S 754 mmHg 48%
    18:00 +19°C° 0 mm 3 m/S 754 mmHg 53%
    19:00 +17°C° 0 mm 3 m/S 754 mmHg 58%
    20:00 +16°C° 0 mm 3 m/S 754 mmHg 59%
    21:00 +16°C° 0 mm 3 m/S 754 mmHg 59%
    22:00 +14°C° 0 mm 3 m/S 754 mmHg 59%
    23:00 +13°C° 0 mm 3 m/S 754 mmHg 60%
    Mehr zeigen